FW0378 Weather Reports


time (UTC)temp
C
wind
direction
speed
KPH
gust
KPH
rain 1hr
cm
rain 24hr
cm
rain mn
cm
humidity
%
barometer
mb
20260504040120 12 242 6.4 14.5 0.00 0.00 0.00 71 1006.7
20260504034536 13 218 8.0 16.1 0.00 0.00 0.00 69 1006.8
20260504033011 13 215 6.4 12.9 0.00 0.00 0.00 66 1006.9
20260504031548 14 238 6.4 12.9 0.00 0.00 0.00 67 1007.1
20260504030024 13 209 3.2 9.7 0.00 0.00 0.00 68 1007.1
20260504024550 13 215 6.4 11.3 0.00 0.00 0.00 68 1007.2
20260504023024 14 234 4.8 12.9 0.00 0.00 0.00 66 1007.2
20260504021549 14 213 4.8 11.3 0.00 0.00 0.00 65 1007.2
20260504020051 15 206 6.4 12.9 0.00 0.00 0.00 63 1007.0
20260504014516 16 245 6.4 11.3 0.00 0.00 0.00 60 1006.8
20260504013106 16 226 4.8 9.7 0.00 0.00 0.00 58 1006.8
20260504011522 16 207 4.8 9.7 0.00 0.00 0.00 56 1006.8
20260504010057 17 234 4.8 11.3 0.00 0.00 0.00 54 1006.8
20260504004509 17 202 4.8 17.7 0.00 0.00 0.00 52 1006.9
20260504003039 18 252 6.4 16.1 0.00 0.00 0.00 51 1006.9
20260504001503 18 227 4.8 16.1 0.00 0.00 0.00 49 1006.9
20260504000037 18 293 4.8 17.7 0.00 0.00 0.00 48 1007.0
20260503234506 19 234 6.4 20.9 0.00 0.00 0.00 46 1007.0
20260503233041 19 257 9.7 24.1 0.00 0.00 0.00 46 1007.0
20260503231555 20 297 6.4 29.0 0.00 0.00 0.00 46 1007.2
20260503230023 20 237 8.0 29.0 0.00 0.00 0.00 46 1007.2
20260503224543 19 217 16.1 33.8 0.00 0.00 0.00 46 1007.5
20260503223001 18 211 11.3 25.7 0.00 0.00 0.00 46 1007.6
20260503221539 18 205 17.7 38.6 0.00 0.00 0.00 45 1007.6
20260503220003 19 201 14.5 32.2 0.00 0.00 0.00 44 1007.7
20260503214525 19 209 19.3 32.2 0.00 0.00 0.00 46 1007.8
20260503213053 18 244 17.7 41.8 0.00 0.00 0.00 45 1008.0
20260503211507 18 202 20.9 35.4 0.00 0.00 0.00 46 1008.0
20260503210038 18 232 17.7 35.4 0.00 0.00 0.00 46 1008.4
20260503204515 18 217 24.1 43.5 0.00 0.00 0.00 44 1008.5
20260503203026 18 223 22.5 40.2 0.00 0.00 0.00 44 1008.9
20260503201546 17 290 20.9 41.8 0.00 0.00 0.00 44 1009.1
20260503200104 17 242 17.7 48.3 0.00 0.00 0.00 44 1009.3
20260503194604 17 246 25.7 48.3 0.00 0.00 0.00 44 1009.6
20260503193033 17 236 20.9 37.0 0.00 0.00 0.00 44 1009.9
20260503191555 17 237 19.3 41.8 0.00 0.00 0.00 45 1009.9
20260503190020 17 205 20.9 41.8 0.00 0.00 0.00 44 1010.2
20260503184541 16 194 29.0 41.8 0.00 0.00 0.00 45 1010.6
20260503183059 16 221 20.9 41.8 0.00 0.00 0.00 50 1010.9
20260503181510 15 205 16.1 33.8 0.00 0.00 0.00 51 1011.4
20260503180049 15 160 11.3 35.4 0.00 0.00 0.00 55 1011.9
20260503174559 14 232 14.5 27.4 0.00 0.00 0.00 56 1012.5
20260503174500 14 175 14.5 27.4 0.00 0.00 0.00 55 1012.4
20260503173026 13 237 9.7 20.9 0.00 0.00 0.00 59 1013.0
20260503171538 13 252 8.0 17.7 0.00 0.00 0.00 60 1013.5
20260503170113 13 214 11.3 17.7 0.00 0.00 0.00 59 1013.7
20260503081532 6 246 8.0 14.5 0.00 0.00 0.00 69 1016.0
20260503080104 6 239 6.4 12.9 0.00 0.00 0.00 69 1016.0
20260503071525 6 246 6.4 14.5 0.00 0.00 0.00 68 1016.2
20260503060105 6 237 6.4 12.9 0.00 0.00 0.00 68 1016.9
20260503054621 6 231 8.0 12.9 0.00 0.00 0.00 68 1017.0
20260503054501 6 236 8.0 12.9 0.00 0.00 0.00 68 1017.0
20260503053023 6 215 6.4 11.3 0.00 0.00 0.00 67 1017.1
20260503051547 6 252 6.4 11.3 0.00 0.00 0.00 66 1017.2
20260503050013 6 252 8.0 14.5 0.00 0.00 0.00 65 1017.3
20260503044542 6 233 8.0 12.9 0.00 0.00 0.00 65 1017.3
20260503043106 6 212 6.4 12.9 0.00 0.00 0.00 65 1017.3
20260503041524 7 227 6.4 12.9 0.00 0.00 0.00 63 1017.4